Time,TemperatureF,DewpointF,PressureIn,WindDirection,WindDirectionDegrees,WindSpeedMPH,WindSpeedGustMPH,Humidity,HourlyPrecipIn,Conditions,Clouds,dailyrainin,SoftwareType,DateUTC
2013-05-15 00:04:00,80.8,51.6,29.74,SSW,212,6.0,12.0,37,0.00,,,0.00,meteohub,2013-05-15 05:04:00,
2013-05-15 00:09:00,79.5,52.0,29.74,SW,219,6.0,8.0,38,0.00,,,0.00,meteohub,2013-05-15 05:09:00,
2013-05-15 00:14:00,78.8,51.8,29.74,SW,233,4.0,8.0,38,0.00,,,0.00,meteohub,2013-05-15 05:14:00,
2013-05-15 00:19:00,78.3,52.3,29.74,SW,217,8.0,8.0,39,0.00,,,0.00,meteohub,2013-05-15 05:19:00,
2013-05-15 00:24:00,77.9,52.2,29.74,SW,234,5.0,8.0,39,0.00,,,0.00,meteohub,2013-05-15 05:24:00,
2013-05-15 00:29:00,77.5,52.2,29.74,SSW,213,5.0,8.0,39,0.00,,,0.00,meteohub,2013-05-15 05:29:00,
2013-05-15 00:34:00,77.2,51.8,29.74,SW,222,5.0,8.0,39,0.00,,,0.00,meteohub,2013-05-15 05:34:00,
2013-05-15 00:39:00,76.8,51.4,29.74,SW,222,4.0,6.0,39,0.00,,,0.00,meteohub,2013-05-15 05:39:00,
2013-05-15 00:44:00,76.5,51.3,29.74,SSW,212,3.0,6.0,39,0.00,,,0.00,meteohub,2013-05-15 05:44:00,
2013-05-15 00:49:00,76.1,51.4,29.74,WSW,238,5.0,6.0,40,0.00,,,0.00,meteohub,2013-05-15 05:49:00,
2013-05-15 00:54:00,75.7,50.5,29.74,SSW,199,4.0,6.0,39,0.00,,,0.00,meteohub,2013-05-15 05:54:00,
2013-05-15 00:59:00,75.4,49.6,29.74,WSW,237,4.0,6.0,38,0.00,,,0.00,meteohub,2013-05-15 05:59:00,
2013-05-15 01:05:00,75.4,48.2,29.74,SW,221,0.0,6.0,36,0.00,,,0.00,meteohub,2013-05-15 06:05:00,
2013-05-15 01:10:00,75.4,48.2,29.74,NE,39,4.0,6.0,36,0.00,,,0.00,meteohub,2013-05-15 06:10:00,
2013-05-15 01:15:00,75.0,49.5,29.74,North,357,0.0,6.0,39,0.00,,,0.00,meteohub,2013-05-15 06:15:00,
2013-05-15 01:20:00,74.5,49.1,29.77,NE,39,0.0,6.0,39,0.00,,,0.00,meteohub,2013-05-15 06:20:00,
2013-05-15 01:25:00,73.9,49.5,29.77,NE,38,0.0,6.0,40,0.00,,,0.00,meteohub,2013-05-15 06:25:00,
2013-05-15 01:30:00,73.2,50.4,29.77,NE,39,0.0,4.0,42,0.00,,,0.00,meteohub,2013-05-15 06:30:00,
2013-05-15 01:35:00,72.5,50.7,29.77,NE,39,0.0,0.0,43,0.00,,,0.00,meteohub,2013-05-15 06:35:00,
2013-05-15 01:40:00,72.0,50.0,29.77,NE,38,0.0,0.0,42,0.00,,,0.00,meteohub,2013-05-15 06:40:00,
2013-05-15 01:45:00,71.6,49.3,29.77,NE,39,0.0,0.0,41,0.00,,,0.00,meteohub,2013-05-15 06:45:00,
2013-05-15 01:50:00,71.6,48.0,29.77,NE,39,0.0,0.0,39,0.00,,,0.00,meteohub,2013-05-15 06:50:00,
2013-05-15 01:55:00,71.6,50.2,29.77,NE,39,0.0,0.0,43,0.00,,,0.00,meteohub,2013-05-15 06:55:00,
2013-05-15 02:01:00,71.4,49.6,29.77,NE,39,0.0,0.0,43,0.00,,,0.00,meteohub,2013-05-15 07:01:00,
2013-05-15 02:06:00,71.2,48.9,29.77,NE,39,0.0,0.0,42,0.00,,,0.00,meteohub,2013-05-15 07:06:00,
2013-05-15 02:11:00,70.9,49.8,29.77,NE,38,0.0,0.0,44,0.00,,,0.00,meteohub,2013-05-15 07:11:00,
2013-05-15 02:16:00,70.7,50.4,29.77,NE,39,0.0,0.0,45,0.00,,,0.00,meteohub,2013-05-15 07:16:00,
2013-05-15 02:21:00,70.3,50.2,29.77,NE,39,0.0,0.0,45,0.00,,,0.00,meteohub,2013-05-15 07:21:00,
2013-05-15 02:26:00,70.3,52.3,29.77,NE,39,0.0,0.0,49,0.00,,,0.00,meteohub,2013-05-15 07:26:00,
2013-05-15 02:31:00,70.3,51.4,29.77,NE,39,0.0,0.0,48,0.00,,,0.00,meteohub,2013-05-15 07:31:00,
2013-05-15 02:36:00,70.2,49.1,29.77,NE,39,0.0,0.0,44,0.00,,,0.00,meteohub,2013-05-15 07:36:00,
2013-05-15 02:41:00,70.0,52.5,29.77,NE,39,0.0,0.0,50,0.00,,,0.00,meteohub,2013-05-15 07:41:00,
2013-05-15 02:46:00,69.8,51.3,29.77,NE,39,0.0,0.0,48,0.00,,,0.00,meteohub,2013-05-15 07:46:00,
2013-05-15 02:51:00,69.6,49.5,29.77,NE,39,0.0,0.0,45,0.00,,,0.00,meteohub,2013-05-15 07:51:00,
2013-05-15 02:56:00,69.6,48.0,29.77,NE,42,0.0,5.0,43,0.00,,,0.00,meteohub,2013-05-15 07:56:00,
2013-05-15 03:02:00,69.6,46.2,29.77,NE,42,0.0,5.0,40,0.00,,,0.00,meteohub,2013-05-15 08:02:00,
2013-05-15 03:07:00,69.8,43.9,29.77,NE,42,0.0,5.0,37,0.00,,,0.00,meteohub,2013-05-15 08:07:00,
2013-05-15 03:12:00,70.0,44.4,29.77,NE,42,0.0,0.0,38,0.00,,,0.00,meteohub,2013-05-15 08:12:00,
2013-05-15 03:17:00,69.8,43.7,29.77,NE,42,0.0,0.0,37,0.00,,,0.00,meteohub,2013-05-15 08:17:00,
2013-05-15 03:22:00,69.6,43.0,29.74,NE,42,0.0,0.0,36,0.00,,,0.00,meteohub,2013-05-15 08:22:00,
2013-05-15 03:27:00,69.4,46.2,29.74,NE,42,0.0,0.0,41,0.00,,,0.00,meteohub,2013-05-15 08:27:00,
2013-05-15 03:32:00,69.1,44.8,29.74,NE,42,0.0,0.0,39,0.00,,,0.00,meteohub,2013-05-15 08:32:00,
2013-05-15 03:37:00,68.9,43.2,29.77,NE,42,0.0,0.0,37,0.00,,,0.00,meteohub,2013-05-15 08:37:00,
2013-05-15 03:42:00,68.7,47.5,29.77,NE,42,0.0,0.0,44,0.00,,,0.00,meteohub,2013-05-15 08:42:00,
2013-05-15 03:47:00,68.4,47.3,29.77,NE,42,0.0,0.0,44,0.00,,,0.00,meteohub,2013-05-15 08:47:00,
2013-05-15 03:52:00,68.0,47.1,29.77,NE,42,0.0,0.0,44,0.00,,,0.00,meteohub,2013-05-15 08:52:00,
2013-05-15 03:57:00,67.8,45.1,29.77,NE,44,0.0,3.0,41,0.00,,,0.00,meteohub,2013-05-15 08:57:00,
2013-05-15 04:02:00,68.0,43.9,29.77,East,95,4.0,4.0,39,0.00,,,0.00,meteohub,2013-05-15 09:02:00,
2013-05-15 04:07:00,68.2,43.7,29.77,NE,55,3.0,4.0,39,0.00,,,0.00,meteohub,2013-05-15 09:07:00,
2013-05-15 04:12:00,68.2,44.2,29.77,NE,49,0.0,4.0,40,0.00,,,0.00,meteohub,2013-05-15 09:12:00,
2013-05-15 04:17:00,68.0,44.6,29.77,NE,48,0.0,4.0,41,0.00,,,0.00,meteohub,2013-05-15 09:17:00,
2013-05-15 04:22:00,67.6,44.8,29.77,NE,48,0.0,4.0,42,0.00,,,0.00,meteohub,2013-05-15 09:22:00,
2013-05-15 04:27:00,67.1,45.3,29.77,NE,48,0.0,4.0,43,0.00,,,0.00,meteohub,2013-05-15 09:27:00,
2013-05-15 04:32:00,66.7,45.1,29.77,NE,48,0.0,0.0,43,0.00,,,0.00,meteohub,2013-05-15 09:32:00,
2013-05-15 04:37:00,66.6,45.7,29.77,NE,48,0.0,0.0,44,0.00,,,0.00,meteohub,2013-05-15 09:37:00,
2013-05-15 04:42:00,66.4,45.5,29.77,NE,48,0.0,0.0,44,0.00,,,0.00,meteohub,2013-05-15 09:42:00,
2013-05-15 04:47:00,66.2,45.3,29.77,NE,48,0.0,0.0,44,0.00,,,0.00,meteohub,2013-05-15 09:47:00,
2013-05-15 04:52:00,66.0,45.5,29.77,NE,47,0.0,0.0,45,0.00,,,0.00,meteohub,2013-05-15 09:52:00,
2013-05-15 04:57:00,65.8,46.0,29.77,NNE,33,0.0,0.0,46,0.00,,,0.00,meteohub,2013-05-15 09:57:00,
2013-05-15 05:02:00,65.5,46.4,29.77,NNE,33,0.0,0.0,47,0.00,,,0.00,meteohub,2013-05-15 10:02:00,
2013-05-15 05:07:00,65.3,46.8,29.77,NNE,33,0.0,0.0,48,0.00,,,0.00,meteohub,2013-05-15 10:07:00,
2013-05-15 05:12:00,64.9,47.3,29.77,NNE,30,0.0,0.0,49,0.00,,,0.00,meteohub,2013-05-15 10:12:00,
2013-05-15 05:17:00,64.8,47.7,29.77,NNE,30,0.0,0.0,50,0.00,,,0.00,meteohub,2013-05-15 10:17:00,
2013-05-15 05:22:00,64.6,48.0,29.80,NNW,344,0.0,0.0,51,0.00,,,0.00,meteohub,2013-05-15 10:22:00,
2013-05-15 05:27:00,64.6,48.4,29.80,NNE,21,2.0,4.0,52,0.00,,,0.00,meteohub,2013-05-15 10:27:00,
2013-05-15 05:32:00,64.6,47.8,29.80,NE,39,0.0,4.0,51,0.00,,,0.00,meteohub,2013-05-15 10:32:00,
2013-05-15 05:37:00,64.4,45.9,29.80,NE,55,4.0,5.0,48,0.00,,,0.00,meteohub,2013-05-15 10:37:00,
2013-05-15 05:42:00,64.4,45.7,29.80,East,79,0.0,6.0,48,0.00,,,0.00,meteohub,2013-05-15 10:42:00,
2013-05-15 05:47:00,64.4,45.7,29.80,NE,41,6.0,8.0,48,0.00,,,0.00,meteohub,2013-05-15 10:47:00,
2013-05-15 05:52:00,64.4,44.4,29.80,NE,51,4.0,11.0,46,0.00,,,0.00,meteohub,2013-05-15 10:52:00,
2013-05-15 05:57:00,64.4,43.7,29.80,East,90,5.0,11.0,45,0.00,,,0.00,meteohub,2013-05-15 10:57:00,
2013-05-15 06:02:00,64.6,43.9,29.80,ENE,61,3.0,11.0,45,0.00,,,0.00,meteohub,2013-05-15 11:02:00,
2013-05-15 06:07:00,64.6,43.9,29.80,ENE,61,2.0,8.0,45,0.00,,,0.00,meteohub,2013-05-15 11:07:00,
2013-05-15 06:12:00,64.4,43.7,29.80,ENE,63,4.0,8.0,45,0.00,,,0.00,meteohub,2013-05-15 11:12:00,
2013-05-15 06:17:00,64.4,43.2,29.80,NE,47,8.0,8.0,44,0.00,,,0.00,meteohub,2013-05-15 11:17:00,
2013-05-15 06:23:00,64.6,42.6,29.80,East,97,6.0,9.0,43,0.00,,,0.00,meteohub,2013-05-15 11:23:00,
2013-05-15 06:28:00,64.6,42.6,29.80,NNE,30,4.0,11.0,43,0.00,,,0.00,meteohub,2013-05-15 11:28:00,
2013-05-15 06:33:00,64.6,42.6,29.83,East,93,4.0,11.0,43,0.00,,,0.00,meteohub,2013-05-15 11:33:00,
2013-05-15 06:38:00,64.6,42.6,29.83,ENE,64,6.0,11.0,43,0.00,,,0.00,meteohub,2013-05-15 11:38:00,
2013-05-15 06:44:00,64.6,42.6,29.83,NE,51,4.0,11.0,43,0.00,,,0.00,meteohub,2013-05-15 11:44:00,
2013-05-15 06:49:00,64.8,42.6,29.83,NE,41,5.0,11.0,43,0.00,,,0.00,meteohub,2013-05-15 11:49:00,
2013-05-15 06:55:00,64.8,41.9,29.83,East,93,4.0,12.0,42,0.00,,,0.00,meteohub,2013-05-15 11:55:00,
2013-05-15 07:00:00,64.9,42.8,29.83,NNE,23,11.0,12.0,43,0.00,,,0.00,meteohub,2013-05-15 12:00:00,
2013-05-15 07:06:00,64.9,42.8,29.83,ENE,67,5.0,11.0,43,0.00,,,0.00,meteohub,2013-05-15 12:06:00,
2013-05-15 07:12:00,64.9,42.8,29.83,East,92,8.0,11.0,43,0.00,,,0.00,meteohub,2013-05-15 12:12:00,
2013-05-15 07:17:00,64.9,42.8,29.83,ENE,71,4.0,11.0,43,0.00,,,0.00,meteohub,2013-05-15 12:17:00,
2013-05-15 07:22:00,65.1,43.0,29.83,ENE,75,5.0,10.0,43,0.00,,,0.00,meteohub,2013-05-15 12:22:00,
2013-05-15 07:27:00,65.7,43.3,29.83,East,79,6.0,11.0,43,0.00,,,0.00,meteohub,2013-05-15 12:27:00,
2013-05-15 07:32:00,65.8,43.5,29.83,ENE,75,10.0,13.0,43,0.00,,,0.00,meteohub,2013-05-15 12:32:00,
2013-05-15 07:37:00,66.2,43.7,29.83,ENE,66,10.0,14.0,43,0.00,,,0.00,meteohub,2013-05-15 12:37:00,
2013-05-15 07:43:00,66.6,44.1,29.83,East,88,8.0,14.0,43,0.00,,,0.00,meteohub,2013-05-15 12:43:00,
2013-05-15 07:48:00,66.7,44.2,29.83,East,91,5.0,14.0,43,0.00,,,0.00,meteohub,2013-05-15 12:48:00,
2013-05-15 07:53:00,67.1,44.4,29.83,East,93,10.0,11.0,43,0.00,,,0.00,meteohub,2013-05-15 12:53:00,
2013-05-15 07:59:00,67.3,44.4,29.83,ESE,109,5.0,11.0,43,0.00,,,0.00,meteohub,2013-05-15 12:59:00,
2013-05-15 08:04:00,67.5,44.1,29.83,East,88,10.0,11.0,42,0.00,,,0.00,meteohub,2013-05-15 13:04:00,
2013-05-15 08:10:00,67.6,44.2,29.83,ESE,110,3.0,13.0,42,0.00,,,0.00,meteohub,2013-05-15 13:10:00,
2013-05-15 08:15:00,67.8,44.4,29.83,ENE,73,8.0,13.0,42,0.00,,,0.00,meteohub,2013-05-15 13:15:00,
2013-05-15 08:21:00,68.0,44.4,29.83,East,83,8.0,13.0,42,0.00,,,0.00,meteohub,2013-05-15 13:21:00,
2013-05-15 08:26:00,68.4,44.8,29.83,ENE,77,6.0,11.0,42,0.00,,,0.00,meteohub,2013-05-15 13:26:00,
2013-05-15 08:31:00,68.9,44.8,29.83,ENE,72,8.0,11.0,41,0.00,,,0.00,meteohub,2013-05-15 13:31:00,
2013-05-15 08:37:00,69.6,44.6,29.86,ENE,76,8.0,14.0,40,0.00,,,0.00,meteohub,2013-05-15 13:37:00,
2013-05-15 08:42:00,70.3,45.0,29.86,ESE,112,4.0,14.0,40,0.00,,,0.00,meteohub,2013-05-15 13:42:00,
2013-05-15 08:47:00,71.1,45.9,29.86,NNE,25,11.0,12.0,41,0.00,,,0.00,meteohub,2013-05-15 13:47:00,
2013-05-15 08:52:00,71.2,46.2,29.86,ESE,105,8.0,13.0,41,0.00,,,0.00,meteohub,2013-05-15 13:52:00,
2013-05-15 08:57:00,71.6,45.0,29.86,NE,46,15.0,15.0,39,0.00,,,0.00,meteohub,2013-05-15 13:57:00,
2013-05-15 09:03:00,71.8,46.2,29.86,NNE,29,6.0,17.0,40,0.00,,,0.00,meteohub,2013-05-15 14:03:00,
2013-05-15 09:08:00,72.1,45.7,29.86,ENE,62,8.0,17.0,39,0.00,,,0.00,meteohub,2013-05-15 14:08:00,
2013-05-15 09:13:00,72.5,46.4,29.86,NNE,28,5.0,17.0,40,0.00,,,0.00,meteohub,2013-05-15 14:13:00,
2013-05-15 09:19:00,72.5,45.9,29.86,NE,49,5.0,17.0,39,0.00,,,0.00,meteohub,2013-05-15 14:19:00,
2013-05-15 09:24:00,72.9,46.8,29.86,ENE,61,13.0,15.0,40,0.00,,,0.00,meteohub,2013-05-15 14:24:00,
2013-05-15 09:30:00,73.2,47.5,29.86,ENE,68,6.0,15.0,40,0.00,,,0.00,meteohub,2013-05-15 14:30:00,
2013-05-15 09:36:00,73.6,46.2,29.86,NE,49,6.0,13.0,38,0.00,,,0.00,meteohub,2013-05-15 14:36:00,
2013-05-15 09:41:00,73.8,46.6,29.86,NNE,18,6.0,15.0,38,0.00,,,0.00,meteohub,2013-05-15 14:41:00,
2013-05-15 09:46:00,73.9,46.2,29.86,NE,47,11.0,15.0,37,0.00,,,0.00,meteohub,2013-05-15 14:46:00,
2013-05-15 09:52:00,74.5,46.6,29.86,ENE,65,3.0,13.0,37,0.00,,,0.00,meteohub,2013-05-15 14:52:00,
2013-05-15 09:57:00,74.8,46.4,29.86,ENE,73,5.0,13.0,36,0.00,,,0.00,meteohub,2013-05-15 14:57:00,
2013-05-15 10:02:00,75.2,45.7,29.86,NE,38,10.0,13.0,35,0.00,,,0.00,meteohub,2013-05-15 15:02:00,
2013-05-15 10:07:00,75.2,46.2,29.86,ENE,60,6.0,13.0,36,0.00,,,0.00,meteohub,2013-05-15 15:07:00,
2013-05-15 10:12:00,75.2,46.2,29.86,NE,39,8.0,13.0,35,0.00,,,0.00,meteohub,2013-05-15 15:12:00,
2013-05-15 10:17:00,75.4,45.5,29.86,NE,46,6.0,15.0,34,0.00,,,0.00,meteohub,2013-05-15 15:17:00,
2013-05-15 10:22:00,75.6,46.0,29.86,NE,50,10.0,15.0,34,0.00,,,0.00,meteohub,2013-05-15 15:22:00,
2013-05-15 10:28:00,75.9,46.0,29.86,NE,43,8.0,15.0,34,0.00,,,0.00,meteohub,2013-05-15 15:28:00,
2013-05-15 10:33:00,76.3,45.5,29.89,East,81,6.0,14.0,33,0.00,,,0.00,meteohub,2013-05-15 15:33:00,
2013-05-15 10:38:00,76.6,46.2,29.89,ENE,61,11.0,15.0,33,0.00,,,0.00,meteohub,2013-05-15 15:38:00,
2013-05-15 10:44:00,76.8,46.4,29.89,ENE,59,11.0,15.0,33,0.00,,,0.00,meteohub,2013-05-15 15:44:00,
2013-05-15 10:49:00,76.8,45.7,29.86,East,88,9.0,15.0,32,0.00,,,0.00,meteohub,2013-05-15 15:49:00,
2013-05-15 10:55:00,77.0,46.2,29.86,ENE,70,8.0,13.0,32,0.00,,,0.00,meteohub,2013-05-15 15:55:00,
2013-05-15 11:00:00,77.2,46.2,29.86,East,79,9.0,13.0,32,0.00,,,0.00,meteohub,2013-05-15 16:00:00,
2013-05-15 11:06:00,77.4,46.9,29.89,ESE,109,10.0,13.0,32,0.00,,,0.00,meteohub,2013-05-15 16:06:00,
2013-05-15 11:11:00,77.5,46.0,29.89,NE,48,13.0,13.0,31,0.00,,,0.00,meteohub,2013-05-15 16:11:00,
2013-05-15 11:17:00,77.7,45.9,29.89,East,85,10.0,13.0,31,0.00,,,0.00,meteohub,2013-05-15 16:17:00,
2013-05-15 11:22:00,77.7,46.4,29.86,NE,46,9.0,13.0,31,0.00,,,0.00,meteohub,2013-05-15 16:22:00,
2013-05-15 11:27:00,77.7,46.6,29.86,ENE,61,8.0,13.0,31,0.00,,,0.00,meteohub,2013-05-15 16:27:00,
2013-05-15 11:32:00,78.1,46.8,29.86,ENE,69,9.0,12.0,31,0.00,,,0.00,meteohub,2013-05-15 16:32:00,
2013-05-15 11:37:00,78.4,46.9,29.86,East,83,11.0,12.0,31,0.00,,,0.00,meteohub,2013-05-15 16:37:00,
2013-05-15 11:42:00,78.8,47.7,29.86,ENE,62,12.0,13.0,31,0.00,,,0.00,meteohub,2013-05-15 16:42:00,
2013-05-15 11:47:00,79.2,47.3,29.86,NE,45,6.0,14.0,30,0.00,,,0.00,meteohub,2013-05-15 16:47:00,
2013-05-15 11:52:00,79.5,47.3,29.86,NE,50,8.0,14.0,30,0.00,,,0.00,meteohub,2013-05-15 16:52:00,
2013-05-15 11:57:00,79.9,47.3,29.86,East,79,14.0,14.0,30,0.00,,,0.00,meteohub,2013-05-15 16:57:00,
2013-05-15 12:02:00,80.1,47.1,29.86,ENE,73,7.0,14.0,30,0.00,,,0.00,meteohub,2013-05-15 17:02:00,
2013-05-15 12:07:00,80.2,47.7,29.86,East,100,5.0,14.0,30,0.00,,,0.00,meteohub,2013-05-15 17:07:00,
2013-05-15 12:12:00,80.2,48.0,29.86,ENE,72,11.0,14.0,30,0.00,,,0.00,meteohub,2013-05-15 17:12:00,
2013-05-15 12:17:00,80.2,46.9,29.86,NE,39,10.0,12.0,29,0.00,,,0.00,meteohub,2013-05-15 17:17:00,
2013-05-15 12:22:00,80.1,47.7,29.86,ESE,109,8.0,12.0,30,0.00,,,0.00,meteohub,2013-05-15 17:22:00,
2013-05-15 12:28:00,80.1,47.7,29.86,ENE,75,8.0,12.0,29,0.00,,,0.00,meteohub,2013-05-15 17:28:00,
2013-05-15 12:33:00,80.6,48.0,29.86,East,92,8.0,12.0,29,0.00,,,0.00,meteohub,2013-05-15 17:33:00,
2013-05-15 12:38:00,80.6,47.3,29.86,ESE,110,8.0,12.0,30,0.00,,,0.00,meteohub,2013-05-15 17:38:00,
2013-05-15 12:43:00,80.2,46.8,29.86,East,101,9.0,12.0,29,0.00,,,0.00,meteohub,2013-05-15 17:43:00,
2013-05-15 12:49:00,80.2,47.3,29.86,ENE,73,5.0,12.0,29,0.00,,,0.00,meteohub,2013-05-15 17:49:00,
2013-05-15 12:55:00,80.4,47.7,29.86,East,98,4.0,11.0,29,0.00,,,0.00,meteohub,2013-05-15 17:55:00,
2013-05-15 13:00:00,80.4,46.9,29.86,East,83,8.0,13.0,29,0.00,,,0.00,meteohub,2013-05-15 18:00:00,
2013-05-15 13:05:00,80.2,47.5,29.83,East,81,9.0,13.0,29,0.00,,,0.00,meteohub,2013-05-15 18:05:00,
2013-05-15 13:10:00,80.4,47.7,29.83,East,88,8.0,13.0,29,0.00,,,0.00,meteohub,2013-05-15 18:10:00,
2013-05-15 13:16:00,80.6,47.3,29.83,ESE,123,6.0,13.0,29,0.00,,,0.00,meteohub,2013-05-15 18:16:00,
2013-05-15 13:21:00,81.1,47.5,29.83,ENE,75,10.0,11.0,29,0.00,,,0.00,meteohub,2013-05-15 18:21:00,
2013-05-15 13:26:00,80.8,46.0,29.83,ESE,109,8.0,11.0,28,0.00,,,0.00,meteohub,2013-05-15 18:26:00,
2013-05-15 13:31:00,80.6,46.4,29.83,ESE,110,5.0,12.0,29,0.00,,,0.00,meteohub,2013-05-15 18:31:00,
2013-05-15 13:36:00,80.8,46.4,29.83,ESE,119,3.0,12.0,28,0.00,,,0.00,meteohub,2013-05-15 18:36:00,
2013-05-15 13:42:00,82.2,46.8,29.83,East,97,5.0,12.0,27,0.00,,,0.00,meteohub,2013-05-15 18:42:00,
2013-05-15 13:47:00,82.8,47.1,29.83,ENE,64,10.0,11.0,27,0.00,,,0.00,meteohub,2013-05-15 18:47:00,
2013-05-15 13:53:00,83.5,46.0,29.83,East,87,8.0,11.0,26,0.00,,,0.00,meteohub,2013-05-15 18:53:00,
2013-05-15 13:59:00,83.5,47.8,29.83,East,81,9.0,11.0,27,0.00,,,0.00,meteohub,2013-05-15 18:59:00,
2013-05-15 14:04:00,84.0,46.8,29.83,ENE,58,6.0,10.0,25,0.00,,,0.00,meteohub,2013-05-15 19:04:00,
2013-05-15 14:10:00,84.2,45.7,29.83,NE,56,8.0,12.0,24,0.00,,,0.00,meteohub,2013-05-15 19:10:00,
2013-05-15 14:15:00,84.2,46.4,29.83,SSE,154,9.0,15.0,26,0.00,,,0.00,meteohub,2013-05-15 19:15:00,
2013-05-15 14:21:00,83.8,45.7,29.80,East,100,6.0,16.0,24,0.00,,,0.00,meteohub,2013-05-15 19:21:00,
2013-05-15 14:26:00,84.2,45.7,29.80,SE,138,8.0,16.0,24,0.00,,,0.00,meteohub,2013-05-15 19:26:00,
2013-05-15 14:31:00,83.5,45.7,29.80,NE,56,10.0,16.0,25,0.00,,,0.00,meteohub,2013-05-15 19:31:00,
2013-05-15 14:37:00,83.7,45.9,29.80,ENE,73,6.0,12.0,24,0.00,,,0.00,meteohub,2013-05-15 19:37:00,
2013-05-15 14:42:00,84.4,45.5,29.80,SE,143,8.0,12.0,24,0.00,,,0.00,meteohub,2013-05-15 19:42:00,
2013-05-15 14:47:00,84.4,47.3,29.80,East,87,8.0,12.0,25,0.00,,,0.00,meteohub,2013-05-15 19:47:00,
2013-05-15 14:53:00,84.9,46.9,29.80,SSE,147,5.0,15.0,25,0.00,,,0.00,meteohub,2013-05-15 19:53:00,
2013-05-15 14:58:00,84.6,47.7,29.80,SE,138,5.0,15.0,27,0.00,,,0.00,meteohub,2013-05-15 19:58:00,
2013-05-15 15:03:00,84.0,46.6,29.80,East,99,10.0,15.0,25,0.00,,,0.00,meteohub,2013-05-15 20:03:00,
2013-05-15 15:09:00,84.2,47.7,29.80,SE,145,9.0,13.0,26,0.00,,,0.00,meteohub,2013-05-15 20:09:00,
2013-05-15 15:14:00,84.6,47.7,29.80,East,89,8.0,13.0,26,0.00,,,0.00,meteohub,2013-05-15 20:14:00,
2013-05-15 15:19:00,84.2,46.0,29.80,SE,136,6.0,11.0,25,0.00,,,0.00,meteohub,2013-05-15 20:19:00,
2013-05-15 15:24:00,83.8,46.6,29.80,SE,140,3.0,12.0,25,0.00,,,0.00,meteohub,2013-05-15 20:24:00,
2013-05-15 15:30:00,83.8,46.6,29.80,ESE,121,8.0,12.0,25,0.00,,,0.00,meteohub,2013-05-15 20:30:00,
2013-05-15 15:35:00,84.4,46.9,29.80,East,83,8.0,11.0,25,0.00,,,0.00,meteohub,2013-05-15 20:35:00,
2013-05-15 15:41:00,84.0,46.6,29.80,SSE,152,3.0,11.0,26,0.00,,,0.00,meteohub,2013-05-15 20:41:00,
2013-05-15 15:46:00,83.8,46.8,29.80,East,94,11.0,12.0,25,0.00,,,0.00,meteohub,2013-05-15 20:46:00,
2013-05-15 15:52:00,84.2,46.0,29.80,East,99,6.0,12.0,25,0.00,,,0.00,meteohub,2013-05-15 20:52:00,
2013-05-15 15:57:00,84.0,46.6,29.80,East,98,4.0,11.0,25,0.00,,,0.00,meteohub,2013-05-15 20:57:00,
2013-05-15 16:02:00,83.8,47.3,29.80,SE,138,8.0,11.0,27,0.00,,,0.00,meteohub,2013-05-15 21:02:00,
2013-05-15 16:07:00,83.1,47.8,29.80,SE,139,4.0,13.0,28,0.00,,,0.00,meteohub,2013-05-15 21:07:00,
2013-05-15 16:12:00,82.8,47.5,29.80,SSE,150,9.0,13.0,28,0.00,,,0.00,meteohub,2013-05-15 21:12:00,
2013-05-15 16:17:00,82.8,48.2,29.80,SE,145,8.0,10.0,28,0.00,,,0.00,meteohub,2013-05-15 21:17:00,
2013-05-15 16:23:00,83.3,49.3,29.80,East,91,4.0,10.0,28,0.00,,,0.00,meteohub,2013-05-15 21:23:00,
2013-05-15 16:28:00,84.0,48.9,29.80,SE,135,10.0,10.0,28,0.00,,,0.00,meteohub,2013-05-15 21:28:00,
2013-05-15 16:33:00,83.7,49.1,29.77,East,98,5.0,11.0,28,0.00,,,0.00,meteohub,2013-05-15 21:33:00,
2013-05-15 16:39:00,84.0,48.7,29.77,SE,141,4.0,11.0,28,0.00,,,0.00,meteohub,2013-05-15 21:39:00,
2013-05-15 16:44:00,83.7,49.8,29.77,ESE,113,2.0,11.0,29,0.00,,,0.00,meteohub,2013-05-15 21:44:00,
2013-05-15 16:50:00,83.8,49.5,29.77,SE,135,6.0,8.0,28,0.00,,,0.00,meteohub,2013-05-15 21:50:00,
2013-05-15 16:55:00,84.4,49.6,29.77,East,95,4.0,8.0,28,0.00,,,0.00,meteohub,2013-05-15 21:55:00,
2013-05-15 17:01:00,84.7,50.0,29.77,ESE,119,4.0,8.0,28,0.00,,,0.00,meteohub,2013-05-15 22:01:00,
2013-05-15 17:06:00,84.9,50.0,29.77,East,95,4.0,11.0,28,0.00,,,0.00,meteohub,2013-05-15 22:06:00,
2013-05-15 17:11:00,84.6,49.6,29.77,East,95,4.0,11.0,28,0.00,,,0.00,meteohub,2013-05-15 22:11:00,
2013-05-15 17:16:00,84.6,49.8,29.77,East,88,5.0,11.0,29,0.00,,,0.00,meteohub,2013-05-15 22:16:00,
2013-05-15 17:22:00,84.4,49.8,29.77,SSE,149,6.0,13.0,29,0.00,,,0.00,meteohub,2013-05-15 22:22:00,
2013-05-15 17:27:00,84.2,49.6,29.77,ENE,69,8.0,13.0,28,0.00,,,0.00,meteohub,2013-05-15 22:27:00,
2013-05-15 17:32:00,84.4,50.0,29.77,SE,129,4.0,10.0,28,0.00,,,0.00,meteohub,2013-05-15 22:32:00,
2013-05-15 17:37:00,84.4,49.8,29.77,East,87,5.0,10.0,29,0.00,,,0.00,meteohub,2013-05-15 22:37:00,
2013-05-15 17:42:00,84.4,49.1,29.77,East,89,6.0,13.0,28,0.00,,,0.00,meteohub,2013-05-15 22:42:00,
2013-05-15 17:47:00,85.8,49.6,29.77,East,98,5.0,13.0,28,0.00,,,0.00,meteohub,2013-05-15 22:47:00,
2013-05-15 17:52:00,88.2,49.8,29.77,ENE,72,5.0,9.0,28,0.00,,,0.00,meteohub,2013-05-15 22:52:00,
2013-05-15 17:57:00,88.2,49.6,29.77,ESE,117,6.0,8.0,28,0.00,,,0.00,meteohub,2013-05-15 22:57:00,
2013-05-15 18:02:00,88.2,49.6,29.77,ENE,73,5.0,8.0,28,0.00,,,0.00,meteohub,2013-05-15 23:02:00,
2013-05-15 18:07:00,88.3,49.5,29.77,ENE,77,4.0,8.0,28,0.00,,,0.00,meteohub,2013-05-15 23:07:00,
2013-05-15 18:13:00,87.3,49.8,29.77,East,96,4.0,8.0,29,0.00,,,0.00,meteohub,2013-05-15 23:13:00,
2013-05-15 18:19:00,85.8,49.1,29.77,ESE,120,4.0,8.0,28,0.00,,,0.00,meteohub,2013-05-15 23:19:00,
2013-05-15 18:24:00,86.7,49.8,29.77,ENE,60,6.0,8.0,29,0.00,,,0.00,meteohub,2013-05-15 23:24:00,
2013-05-15 18:29:00,87.6,49.6,29.77,ENE,75,6.0,8.0,29,0.00,,,0.00,meteohub,2013-05-15 23:29:00,
2013-05-15 18:34:00,88.9,49.5,29.77,East,82,4.0,9.0,29,0.00,,,0.00,meteohub,2013-05-15 23:34:00,
2013-05-15 18:40:00,88.2,49.5,29.77,NE,55,4.0,11.0,29,0.00,,,0.00,meteohub,2013-05-15 23:40:00,
2013-05-15 18:45:00,86.9,49.3,29.77,ENE,78,8.0,12.0,29,0.00,,,0.00,meteohub,2013-05-15 23:45:00,
2013-05-15 18:51:00,86.5,49.3,29.77,ENE,74,6.0,12.0,29,0.00,,,0.00,meteohub,2013-05-15 23:51:00,
2013-05-15 18:56:00,86.5,49.1,29.77,East,82,8.0,11.0,29,0.00,,,0.00,meteohub,2013-05-15 23:56:00,
2013-05-15 19:01:00,86.2,48.9,29.77,NE,56,9.0,11.0,29,0.00,,,0.00,meteohub,2013-05-16 00:01:00,
2013-05-15 19:06:00,85.5,48.7,29.77,ENE,65,8.0,11.0,29,0.00,,,0.00,meteohub,2013-05-16 00:06:00,
2013-05-15 19:12:00,85.3,48.7,29.77,NE,44,5.0,11.0,29,0.00,,,0.00,meteohub,2013-05-16 00:12:00,
2013-05-15 19:17:00,84.4,48.6,29.77,NE,48,6.0,11.0,29,0.00,,,0.00,meteohub,2013-05-16 00:17:00,
2013-05-15 19:22:00,83.7,48.4,29.77,ENE,64,5.0,11.0,29,0.00,,,0.00,meteohub,2013-05-16 00:22:00,
2013-05-15 19:27:00,82.9,48.0,29.77,East,87,5.0,11.0,29,0.00,,,0.00,meteohub,2013-05-16 00:27:00,
2013-05-15 19:32:00,82.2,48.0,29.77,East,92,8.0,11.0,29,0.00,,,0.00,meteohub,2013-05-16 00:32:00,
2013-05-15 19:37:00,81.9,47.7,29.77,ENE,69,8.0,8.0,29,0.00,,,0.00,meteohub,2013-05-16 00:37:00,
2013-05-15 19:42:00,81.7,47.7,29.77,ENE,72,4.0,11.0,29,0.00,,,0.00,meteohub,2013-05-16 00:42:00,
2013-05-15 19:47:00,81.5,47.5,29.77,ENE,72,5.0,11.0,29,0.00,,,0.00,meteohub,2013-05-16 00:47:00,
2013-05-15 19:52:00,81.3,47.1,29.77,NE,35,6.0,9.0,29,0.00,,,0.00,meteohub,2013-05-16 00:52:00,
2013-05-15 19:57:00,81.3,47.7,29.77,NE,41,6.0,11.0,30,0.00,,,0.00,meteohub,2013-05-16 00:57:00,
2013-05-15 20:02:00,82.0,47.3,29.77,ENE,77,6.0,11.0,30,0.00,,,0.00,meteohub,2013-05-16 01:02:00,
2013-05-15 20:07:00,82.4,47.1,29.74,NE,47,3.0,9.0,30,0.00,,,0.00,meteohub,2013-05-16 01:07:00,
2013-05-15 20:12:00,81.9,46.8,29.74,East,93,4.0,11.0,30,0.00,,,0.00,meteohub,2013-05-16 01:12:00,
2013-05-15 20:17:00,81.0,46.4,29.77,ENE,61,4.0,11.0,30,0.00,,,0.00,meteohub,2013-05-16 01:17:00,
2013-05-15 20:23:00,79.9,46.9,29.77,NE,36,6.0,8.0,31,0.00,,,0.00,meteohub,2013-05-16 01:23:00,
2013-05-15 20:29:00,79.0,46.6,29.77,ENE,65,3.0,6.0,31,0.00,,,0.00,meteohub,2013-05-16 01:29:00,
2013-05-15 20:34:00,78.3,46.9,29.77,ENE,66,4.0,6.0,32,0.00,,,0.00,meteohub,2013-05-16 01:34:00,
2013-05-15 20:39:00,77.5,46.6,29.77,NE,56,0.0,6.0,32,0.00,,,0.00,meteohub,2013-05-16 01:39:00,
2013-05-15 20:44:00,77.0,47.1,29.77,NE,43,3.0,6.0,33,0.00,,,0.00,meteohub,2013-05-16 01:44:00,
2013-05-15 20:50:00,76.5,46.8,29.77,NE,54,4.0,6.0,33,0.00,,,0.00,meteohub,2013-05-16 01:50:00,
2013-05-15 20:55:00,76.1,46.4,29.77,ENE,70,0.0,6.0,33,0.00,,,0.00,meteohub,2013-05-16 01:55:00,
2013-05-15 21:00:00,75.9,46.2,29.77,ENE,64,3.0,6.0,33,0.00,,,0.00,meteohub,2013-05-16 02:00:00,
2013-05-15 21:05:00,75.7,45.3,29.77,ENE,68,3.0,5.0,32,0.00,,,0.00,meteohub,2013-05-16 02:05:00,
2013-05-15 21:11:00,75.6,45.1,29.77,East,81,3.0,6.0,32,0.00,,,0.00,meteohub,2013-05-16 02:11:00,
2013-05-15 21:16:00,75.6,45.0,29.77,ENE,61,5.0,6.0,32,0.00,,,0.00,meteohub,2013-05-16 02:16:00,
2013-05-15 21:22:00,75.6,45.5,29.77,NE,56,4.0,6.0,33,0.00,,,0.00,meteohub,2013-05-16 02:22:00,
2013-05-15 21:27:00,75.6,45.3,29.77,East,95,4.0,6.0,33,0.00,,,0.00,meteohub,2013-05-16 02:27:00,
2013-05-15 21:32:00,75.6,45.3,29.77,ENE,66,3.0,6.0,33,0.00,,,0.00,meteohub,2013-05-16 02:32:00,
2013-05-15 21:37:00,75.6,45.1,29.77,NE,49,6.0,6.0,33,0.00,,,0.00,meteohub,2013-05-16 02:37:00,
2013-05-15 21:42:00,75.4,45.1,29.77,East,94,0.0,6.0,33,0.00,,,0.00,meteohub,2013-05-16 02:42:00,
2013-05-15 21:47:00,75.4,45.1,29.77,East,83,5.0,6.0,33,0.00,,,0.00,meteohub,2013-05-16 02:47:00,
2013-05-15 21:52:00,75.4,45.1,29.80,ESE,113,5.0,6.0,33,0.00,,,0.00,meteohub,2013-05-16 02:52:00,
2013-05-15 21:57:00,75.6,45.1,29.80,East,97,5.0,6.0,33,0.00,,,0.00,meteohub,2013-05-16 02:57:00,
2013-05-15 22:02:00,75.7,45.9,29.80,ESE,112,3.0,6.0,34,0.00,,,0.00,meteohub,2013-05-16 03:02:00,
2013-05-15 22:07:00,75.7,45.7,29.80,SSE,149,4.0,8.0,34,0.00,,,0.00,meteohub,2013-05-16 03:07:00,
2013-05-15 22:12:00,75.7,45.7,29.80,East,97,4.0,8.0,34,0.00,,,0.00,meteohub,2013-05-16 03:12:00,
2013-05-15 22:18:00,75.7,45.7,29.80,ENE,72,5.0,8.0,34,0.00,,,0.00,meteohub,2013-05-16 03:18:00,
2013-05-15 22:23:00,75.6,45.5,29.80,East,93,5.0,6.0,34,0.00,,,0.00,meteohub,2013-05-16 03:23:00,
2013-05-15 22:28:00,75.6,45.5,29.80,ESE,106,0.0,6.0,34,0.00,,,0.00,meteohub,2013-05-16 03:28:00,
2013-05-15 22:33:00,75.4,45.1,29.80,East,101,5.0,6.0,34,0.00,,,0.00,meteohub,2013-05-16 03:33:00,
2013-05-15 22:38:00,75.0,45.1,29.80,East,98,4.0,6.0,34,0.00,,,0.00,meteohub,2013-05-16 03:38:00,
2013-05-15 22:43:00,74.8,46.2,29.80,East,91,4.0,6.0,36,0.00,,,0.00,meteohub,2013-05-16 03:43:00,
2013-05-15 22:49:00,74.5,46.2,29.80,SE,124,3.0,6.0,36,0.00,,,0.00,meteohub,2013-05-16 03:49:00,
2013-05-15 22:54:00,74.3,46.0,29.80,East,92,3.0,6.0,36,0.00,,,0.00,meteohub,2013-05-16 03:54:00,
2013-05-15 23:00:00,74.5,45.3,29.80,ESE,102,6.0,6.0,35,0.00,,,0.00,meteohub,2013-05-16 04:00:00,
2013-05-15 23:01:00,74.3,46.0,29.80,ESE,117,4.0,8.0,36,0.00,,,0.00,meteohub,2013-05-16 04:01:00,
2013-05-15 23:02:00,74.3,46.0,29.80,ESE,106,6.0,8.0,36,0.00,,,0.00,meteohub,2013-05-16 04:02:00,
2013-05-15 23:04:00,74.5,46.0,29.80,East,91,4.0,8.0,36,0.00,,,0.00,meteohub,2013-05-16 04:04:00,
2013-05-15 23:09:00,74.3,45.9,29.80,East,89,4.0,8.0,36,0.00,,,0.00,meteohub,2013-05-16 04:09:00,
2013-05-15 23:15:00,74.1,45.7,29.80,East,91,3.0,8.0,36,0.00,,,0.00,meteohub,2013-05-16 04:15:00,
2013-05-15 23:20:00,73.8,45.5,29.80,SE,124,3.0,7.0,36,0.00,,,0.00,meteohub,2013-05-16 04:20:00,
2013-05-15 23:25:00,73.6,45.5,29.80,East,97,5.0,6.0,36,0.00,,,0.00,meteohub,2013-05-16 04:25:00,
2013-05-15 23:31:00,73.4,46.0,29.80,ESE,107,4.0,6.0,37,0.00,,,0.00,meteohub,2013-05-16 04:31:00,
2013-05-15 23:36:00,73.2,45.9,29.80,East,92,4.0,6.0,37,0.00,,,0.00,meteohub,2013-05-16 04:36:00,
2013-05-15 23:41:00,73.0,45.7,29.80,East,98,0.0,6.0,37,0.00,,,0.00,meteohub,2013-05-16 04:41:00,
2013-05-15 23:46:00,72.9,45.5,29.80,ENE,73,3.0,5.0,37,0.00,,,0.00,meteohub,2013-05-16 04:46:00,
2013-05-15 23:51:00,72.5,46.0,29.80,ENE,68,2.0,6.0,38,0.00,,,0.00,meteohub,2013-05-16 04:51:00,
2013-05-15 23:56:00,72.1,46.6,29.80,ENE,68,0.0,6.0,39,0.00,,,0.00,meteohub,2013-05-16 04:56:00,